GFSFLT1_850_dewp_192.txt.gz
Dewpoint
9 9 9 9 9 8 7 6 5 3 2 3 2 1 -0 -2 -3 -5 -7 -8 -8 -7 -8 -9 -10 -10 -12 -15 -16 -17 -17 -17
9 9 9 9 8 7 6 5 5 3 3 2 2 1 -0 -2 -4 -5 -6 -8 -8 -7 -8 -9 -10 -11 -15 -18 -20 -19 -18 -18
8 8 8 8 6 6 5 5 4 3 1 2 2 1 -1 -2 -3 -5 -7 -8 -8 -8 -9 -10 -12 -15 -18 -21 -22 -21 -22 -21
7 7 7 6 5 5 5 5 4 3 2 2 1 -0 -0 -1 -4 -6 -8 -8 -9 -10 -11 -13 -15 -17 -20 -23 -25 -25 -24 -22
6 6 5 5 5 5 5 4 4 3 1 0 0 0 1 -1 -4 -6 -8 -9 -10 -11 -13 -15 -18 -21 -24 -26 -27 -25 -21 -21
5 5 5 5 5 5 5 4 4 3 0 1 2 2 2 0 -3 -4 -7 -9 -11 -12 -15 -18 -21 -25 -27 -28 -25 -22 -20 -20
5 5 5 5 5 5 4 4 4 3 2 3 3 2 2 -1 -1 -2 -5 -9 -11 -14 -16 -20 -23 -26 -28 -26 -24 -24 -23 -20
4 5 5 5 5 4 4 4 4 3 3 3 2 2 0 0 -1 -1 -4 -8 -10 -13 -17 -21 -26 -30 -28 -29 -28 -30 -26 -25
4 5 4 4 4 4 3 4 4 3 3 3 2 1 1 1 0 -1 -5 -7 -9 -13 -18 -22 -27 -30 -27 -29 -30 -31 -27 -24
4 4 4 4 4 3 3 3 4 3 3 3 2 1 1 1 0 -2 -4 -6 -8 -11 -18 -25 -29 -25 -26 -27 -25 -25 -22 -19
4 4 4 4 3 3 3 3 3 3 3 3 2 2 1 1 -0 -3 -4 -5 -8 -11 -19 -26 -27 -25 -23 -22 -20 -20 -19 -16
1 3 3 3 3 3 3 3 3 2 2 2 2 2 1 0 -0 -2 -3 -5 -8 -11 -19 -25 -26 -23 -20 -18 -19 -18 -18 -18
-1 -0 -2 -2 -1 -2 1 0 2 2 2 1 1 1 1 -0 -1 -2 -4 -6 -8 -13 -20 -23 -22 -19 -17 -17 -18 -17 -17 -18
-3 -2 -3 -2 -2 -1 -0 -1 -2 -2 1 1 1 0 -0 -1 -2 -3 -4 -7 -9 -13 -19 -21 -19 -18 -16 -16 -17 -17 -17 -17
-2 -2 -1 -1 -1 -1 -0 -0 0 1 1 1 1 1 0 -1 -2 -3 -6 -7 -9 -14 -17 -18 -17 -17 -17 -16 -16 -17 -16 -17
-2 -2 -2 -1 -0 -0 1 1 1 2 1 1 1 1 0 -1 -2 -3 -6 -7 -10 -12 -14 -14 -15 -15 -16 -17 -17 -17 -17 -19
0 0 -1 -1 -2 1 1 1 1 2 2 1 1 1 0 -1 -2 -4 -6 -8 -10 -10 -12 -15 -15 -16 -17 -18 -18 -18 -20 -24
-1 -1 -0 -0 -0 -0 2 2 2 2 2 1 1 1 0 -1 -2 -4 -7 -8 -9 -10 -13 -14 -14 -15 -16 -17 -18 -17 -22 -26
1 1 1 1 0 -0 -1 0 2 2 2 1 1 0 -0 -1 -2 -4 -7 -8 -8 -6 -9 -11 -13 -16 -16 -16 -18 -21 -24 -28

GFSFLT1_850_dewp_195.txt.gz
Dewpoint
9 8 8 8 9 9 9 9 8 7 5 4 4 3 3 1 -2 -4 -6 -7 -7 -7 -8 -8 -9 -9 -9 -11 -13 -14 -13 -13
9 9 9 9 9 9 8 8 8 7 6 5 4 3 2 -1 -2 -3 -5 -7 -8 -8 -8 -8 -9 -10 -11 -13 -16 -15 -14 -9
5 9 9 9 9 9 8 8 7 6 6 4 3 2 0 -1 -2 -4 -5 -6 -7 -8 -8 -9 -10 -11 -13 -16 -18 -17 -16 -7
0 7 9 9 9 9 8 8 7 6 5 4 3 1 1 -1 -2 -4 -6 -7 -8 -8 -9 -10 -11 -13 -16 -19 -21 -20 -19 -16
-0 4 8 9 9 9 8 7 6 6 5 3 2 1 -0 -2 -3 -5 -7 -8 -8 -9 -10 -11 -13 -16 -18 -21 -24 -25 -24 -22
4 6 7 7 7 8 7 6 6 5 4 3 2 1 -1 -1 -2 -5 -6 -8 -9 -10 -11 -13 -15 -18 -22 -24 -25 -27 -27 -26
5 6 6 6 7 7 6 6 6 6 5 4 2 0 1 1 -0 -4 -6 -8 -9 -10 -12 -14 -17 -21 -23 -26 -27 -28 -27 -27
5 5 6 6 6 6 6 6 6 6 4 3 2 3 2 2 -0 -3 -3 -5 -8 -10 -13 -15 -19 -22 -24 -27 -29 -27 -27 -28
5 5 5 6 6 6 6 6 6 5 3 3 3 3 3 2 -0 -0 -1 -3 -7 -10 -13 -16 -20 -23 -26 -28 -30 -28 -28 -27
5 5 6 6 6 6 4 4 4 3 3 3 3 2 2 1 1 0 -0 -3 -6 -9 -12 -16 -21 -25 -25 -26 -27 -27 -24 -24
3 3 2 1 2 2 3 1 1 3 4 3 3 3 2 1 1 0 -0 -3 -4 -7 -10 -16 -22 -24 -24 -23 -23 -22 -21 -20
-0 0 2 4 4 3 3 2 2 3 2 2 3 2 2 2 1 1 -1 -3 -4 -6 -9 -16 -22 -23 -22 -20 -18 -20 -20 -19
-0 -3 -0 3 4 3 2 0 0 1 2 2 1 2 2 2 1 0 -1 -2 -3 -6 -8 -16 -23 -24 -19 -19 -18 -19 -19 -19
-2 1 2 1 3 2 -1 -0 1 2 1 1 2 2 1 1 1 0 -0 -2 -4 -6 -9 -16 -22 -20 -18 -17 -16 -17 -16 -17
-3 -2 -1 2 2 0 1 1 2 1 1 1 1 1 1 -1 1 0 -1 -3 -4 -6 -10 -15 -17 -15 -15 -14 -14 -14 -14 -15
-3 -2 -2 -2 -1 -1 1 1 3 3 2 1 2 2 1 1 1 -0 -1 0 -3 -3 -7 -15 -16 -15 -16 -15 -14 -13 -14 -15
-4 -4 -4 -4 -2 -1 -1 -0 2 3 3 2 2 1 1 1 0 -0 -1 -0 -1 -2 -10 -13 -16 -15 -14 -14 -13 -13 -14 -15
-1 0 1 0 0 1 1 1 -0 2 3 3 2 2 1 1 0 -0 -0 -1 -3 -5 -10 -11 -14 -14 -15 -14 -14 -13 -15 -18
-0 1 2 0 0 1 1 2 3 3 3 3 2 2 2 1 1 -1 -1 -1 -3 -6 -9 -10 -12 -6 -13 -14 -14 -12 -14 -18

GFSFLT1_850_dewp_201.txt.gz
Dewpoint
-9 -3 4 8 10 10 10 10 11 11 11 7 4 4 3 2 2 2 1 -1 -1 -2 -3 -5 -6 -7 -8 -8 -8 -7 -7 -4
-2 -5 -5 7 9 10 10 11 11 11 11 7 5 5 5 4 3 3 2 -1 -3 -4 -4 -5 -7 -8 -8 -8 -8 -9 -7 -3
-3 -4 -3 -5 4 9 10 11 11 11 10 9 6 6 5 4 3 2 0 -2 -4 -5 -6 -6 -7 -8 -8 -9 -10 -9 -7 -2
0 -2 -3 -3 1 7 10 10 11 11 10 9 6 6 5 4 3 2 -0 -3 -4 -5 -6 -7 -7 -8 -9 -11 -11 -11 -9 -3
4 3 3 2 5 8 9 10 10 10 10 9 8 7 5 4 3 1 -1 -3 -4 -4 -5 -6 -7 -9 -11 -13 -12 -12 -12 -7
5 5 5 6 6 8 9 9 9 9 7 6 6 5 4 2 1 -0 -1 -3 -4 -4 -5 -6 -8 -10 -12 -15 -15 -13 -11 -9
4 5 6 6 7 7 7 8 7 6 5 5 4 4 3 3 2 2 -1 -3 -4 -5 -5 -6 -9 -11 -14 -17 -19 -19 -19 -14
5 5 5 6 6 7 7 6 5 5 4 3 3 4 4 4 4 3 3 1 0 -3 -6 -8 -10 -13 -16 -20 -21 -22 -23 -23
3 5 5 5 6 6 6 2 1 0 -1 -1 1 2 3 4 3 3 3 2 -4 -7 -8 -9 -11 -14 -18 -20 -23 -26 -28 -28
-5 -1 -0 3 5 6 5 4 1 -1 -2 0 1 3 5 5 3 3 2 -1 -4 -4 -7 -9 -12 -15 -19 -21 -26 -28 -28 -29
-7 -7 -6 -2 -1 2 5 5 1 1 1 1 2 4 5 4 3 3 3 1 -1 -1 -6 -9 -11 -15 -19 -23 -26 -28 -28 -27
-6 -8 -9 -5 -1 1 3 3 2 3 2 4 4 3 2 3 3 4 4 1 -1 -1 -5 -7 -9 -14 -19 -23 -25 -25 -26 -23
-7 -6 -7 -4 -2 -1 4 4 3 2 2 2 1 1 0 3 3 3 3 2 1 -1 -4 -5 -4 -12 -19 -20 -21 -22 -22 -22
-6 -7 -5 -3 -2 -2 -1 1 2 0 -0 1 0 -0 -0 1 3 3 3 2 1 1 0 -4 -6 -9 -17 -18 -18 -19 -19 -19
-6 -3 -2 -3 -4 -3 -1 -1 0 3 2 3 -0 0 0 0 3 3 2 2 2 2 -0 -3 -6 -10 -15 -16 -19 -19 -17 -16
-1 -2 -5 -7 -6 -4 -2 -2 -2 -2 -0 1 3 3 3 4 4 3 2 2 1 -1 -1 -0 -3 -11 -15 -17 -16 -15 -16 -15
-3 -6 -6 -6 -2 -0 1 -0 0 1 0 -1 1 3 4 4 3 3 3 2 0 -0 -0 -0 -1 -2 -6 -15 -15 -13 -13 -14
-5 -6 -5 -3 -3 -2 0 1 0 1 1 1 2 2 3 3 3 3 2 2 0 0 1 0 -0 -1 -2 -10 -13 -12 -13 -14
-5 -5 -4 -4 -5 -5 -4 1 0 -1 0 2 2 3 3 3 3 2 2 1 0 0 -1 -1 -1 -2 -7 -12 -11 -12 -12 -12

GFSFLT1_850_dewp_204.txt.gz
Dewpoint
-1 1 6 9 11 12 12 12 11 11 12 11 10 10 7 6 5 5 2 1 0 0 1 -2 -4 -2 -0 -1 2 3 4 3
2 2 4 7 9 12 12 12 12 10 11 11 10 9 6 5 5 3 1 2 1 0 1 -2 -3 -2 -1 -4 -2 4 4 2
4 4 -1 5 8 10 12 11 11 11 11 11 10 9 6 5 4 3 3 2 1 0 1 -1 -3 1 1 -4 0 3 3 2
5 5 4 7 9 10 11 10 10 10 11 11 10 7 6 5 5 4 3 2 0 -0 -1 -0 -1 1 -2 -4 -0 2 2 2
5 6 7 7 5 5 7 9 9 9 10 10 8 7 6 5 4 3 2 0 -1 -1 -2 -3 -4 -3 -3 -6 1 2 2 2
6 6 5 4 4 4 5 6 8 9 9 8 7 6 5 5 4 2 1 0 -1 -1 -2 -2 -4 -6 -8 -8 -7 -0 1 1
5 3 4 4 5 5 5 5 6 7 8 7 6 5 5 4 3 3 3 3 2 1 -0 -2 -3 -5 -9 -11 -9 -9 -6 1
5 3 1 1 2 3 4 4 6 3 -0 -0 3 4 4 4 3 3 2 2 2 2 0 -1 -2 -5 -9 -12 -14 -11 -10 -11
0 3 -5 -6 -6 -4 1 3 1 1 -0 0 3 4 4 3 3 3 2 2 2 2 1 -1 -3 -7 -10 -14 -17 -18 -18 -16
-2 -2 3 2 -8 -7 -2 4 3 2 0 -0 1 3 4 4 4 4 3 3 3 1 0 -2 -4 -5 -11 -15 -19 -20 -22 -24
-6 -6 -5 -1 4 5 4 7 6 5 4 3 4 1 3 3 4 4 3 4 2 -1 -3 -5 -7 -10 -14 -18 -20 -23 -26 -28
-7 -6 -5 -4 0 4 6 6 6 6 6 5 5 4 4 4 5 5 4 3 0 -4 -5 -6 -9 -11 -15 -18 -21 -25 -27 -29
-6 -5 -4 -2 1 3 4 5 6 5 4 6 2 2 4 4 4 5 4 3 2 0 0 -3 -8 -11 -14 -18 -22 -24 -24 -25
-5 -4 -0 0 1 2 2 3 5 6 1 5 3 3 2 3 4 4 3 3 4 3 2 0 -5 -8 -2 -15 -19 -22 -18 -16
-5 -3 1 -0 0 1 1 -1 -2 -2 -1 1 2 3 0 -1 2 3 3 3 3 2 2 2 -0 -6 -2 -5 -16 -18 -12 -6
-4 -1 -2 -3 -0 2 2 3 3 0 0 1 -0 2 4 2 1 2 2 2 3 2 0 1 1 0 -1 -2 -12 -17 -10 -7
-2 -2 -3 -3 -2 -1 -0 1 3 3 3 3 4 4 4 3 4 3 4 2 3 2 1 2 1 0 -1 -2 -5 -16 -14 -13
-1 -3 -3 -2 -2 -2 -3 -2 0 3 3 3 3 3 4 3 3 3 4 3 3 3 2 1 0 -0 -1 -6 -8 -12 -14 -15
-1 -3 -3 -3 -3 -2 1 0 -0 3 3 3 1 1 2 2 3 3 3 4 3 2 2 1 0 -0 -1 -2 -7 -12 -11 -11

GFSFLT1_850_dewp_210.txt.gz
Dewpoint
0 1 1 3 6 9 12 12 13 12 12 12 12 12 12 11 10 10 10 11 11 11 11 9 4 3 3 3 3 4 5 5
2 3 4 5 5 8 11 13 13 12 11 11 11 12 11 11 10 10 10 10 9 10 9 5 3 4 4 3 3 3 5 5
3 5 7 7 8 9 11 12 12 12 10 10 11 11 11 10 10 10 9 9 8 8 7 4 4 4 4 3 2 3 5 4
3 6 8 9 8 10 10 11 11 11 10 10 10 10 9 9 9 8 8 7 8 7 7 5 5 5 4 3 2 2 5 5
3 5 7 7 3 1 2 -0 4 3 5 9 10 10 10 9 9 8 7 6 7 7 7 6 5 5 4 3 3 2 5 5
4 5 6 6 5 -3 -6 -6 -6 -6 -5 -1 5 7 7 8 8 8 7 6 6 7 6 6 5 5 4 4 4 3 5 5
3 3 4 4 2 1 0 -3 -4 -6 -5 -3 -0 4 6 8 8 7 7 6 6 6 5 5 5 4 4 3 4 3 5 5
4 3 2 2 3 3 3 2 1 0 -2 0 3 2 1 3 5 6 6 5 5 5 4 4 3 4 3 3 3 3 4 4
-0 -1 -1 -2 -4 -4 -1 0 1 2 6 5 3 2 1 1 3 4 5 5 5 4 4 3 2 2 2 2 2 3 3 3
-2 -3 -4 -5 -5 -5 -5 -4 3 3 3 5 6 5 5 5 5 4 4 4 4 4 3 2 1 1 1 0 0 0 1 2
-5 -6 -7 -6 -6 -5 -4 -4 3 4 2 4 5 5 5 6 5 4 4 4 4 4 3 2 1 -0 -0 -0 -0 -0 0 1
-7 -7 -7 -7 -6 -5 -4 -2 -2 2 3 4 5 5 5 4 4 2 1 3 4 3 2 2 0 -1 -1 -1 -1 -0 -0 -0
-8 -7 -7 -7 -6 -3 -0 -0 0 1 2 4 4 4 2 1 2 2 0 3 3 3 3 1 0 -0 -1 -1 -1 -1 -1 -1
-7 -7 -7 -8 -7 -1 -0 0 1 1 2 2 4 4 3 2 3 2 2 2 3 3 2 1 0 0 -0 -1 -1 -2 -6 -9
-7 -7 -7 -7 -5 -0 -0 -0 0 1 2 2 2 4 5 5 5 4 4 3 2 3 3 2 1 0 -5 -7 -6 -7 -6 -4
-7 -6 -2 -3 -4 -2 -1 -0 1 -0 -0 2 2 2 3 4 3 5 5 4 2 3 2 2 2 1 -1 -7 -7 -8 -5 -5
-5 -2 -1 0 -0 -2 -2 -2 -3 -3 -3 -3 -0 1 0 2 2 3 4 4 4 3 3 2 2 1 1 -0 -2 -10 -10 -8
-1 -1 -2 -2 -0 -1 0 -3 -2 -1 -0 -0 -2 -1 0 2 2 3 3 3 3 3 3 3 2 1 -0 -2 -6 -1 0 -2
-1 -1 -1 -1 -0 0 -1 -2 -1 -2 -1 0 -1 -0 1 1 2 3 3 3 3 3 2 2 2 1 -1 -0 -1 -2 -1 -3